Regional Weather Roundup
Issued by NWS

Home | Current Version | Previous Version | Graphics & Text | Print | Product List | Glossary On
Versions: 1 2 3 4 5 6 7 8 9 10 11 12 13 14 15 16 17 18 19 20 21 22 23 24 25 26 27 28 29 30 31 32 33 34 35 36 37 38 39 40 41 42 43 44 45 46 47 48 49 50
999
ASUS45 KTFX 211610
RWRMT
MONTANA REGIONAL WEATHER ROUNDUP
NATIONAL WEATHER SERVICE GREAT FALLS MT
1000 AM MDT MON MAY 21 2018

NOTE: "FAIR" INDICATES FEW OR NO CLOUDS BELOW 12000 FEET WITH NO
SIGNIFICANT WEATHER AND/OR OBSTRUCTIONS TO VISIBILITY.

MTZ001>007-043-211700-
WEST OF THE DIVIDE

CITY           SKY/WX    TMP DP  RH WIND       PRES   REMARKS
KALISPELL      CLOUDY    59  47  64 CALM      29.96R
MISSOULA       LGT RAIN  55  50  83 CALM      29.98R
BUTTE          FAIR      56  45  66 CALM      30.02S
MULLAN PASS    CLOUDY    47  44  90 N5        30.04R
ANACONDA         N/A     61  46  59 CALM      30.00S
DEER LODGE       N/A     59  48  67 CALM      30.02S
HAMILTON         N/A     55  50  82 MISG      29.99S
RONAN            N/A     63  50  63 CALM      29.97S
$$

MTZ008-052>055-211700-
SOUTHWEST MONTANA

CITY           SKY/WX    TMP DP  RH WIND       PRES   REMARKS
BOZEMAN        FAIR      62  48  60 CALM      29.98S
DILLON         CLOUDY    56  47  71 CALM      30.00S
ENNIS          CLOUDY    59  45  58 S7        30.03S
W YELLOWSTONE  FAIR      52  43  71 CALM      30.07S
$$

MTZ009-010-012-014-046-048-049-054-211700-
EAST SLOPES AND CENTRAL MONTANA

CITY           SKY/WX    TMP DP  RH WIND       PRES   REMARKS
CUT BANK       FAIR      63  42  46 NW14      29.94R
GREAT FALLS    PTSUNNY   61  48  62 W7        29.94R
MALMSTROM AFB  PTSUNNY   58  47  67 W8        29.93R
HELENA         FAIR      62  48  60 CALM      29.95S
CHOTEAU          N/A     68  45  42 N10G16    29.97R
WHITE SULPHUR    N/A     57  48  72 CALM      29.97F
$$

MTZ011-013-016-021-045-047-050-051-211700-
NORTH CENTRAL MONTANA

CITY           SKY/WX    TMP DP  RH WIND       PRES   REMARKS
HAVRE          FAIR      66  52  60 CALM      29.87F
LEWISTOWN      PTSUNNY   60  51  72 SW6       29.94R
N BAR RANCH    CLOUDY    66  46  48 VRB5      29.97R
CHINOOK          N/A     66  54  63 CALM      29.87F
GEYSER         PTSUNNY   64  49  56 W12       29.93R
JUDITH GAP     PTSUNNY   60  50  70 N7        29.95S
$$

MTZ017>020-022>027-061-062-211700-
NORTHEAST MONTANA

CITY           SKY/WX    TMP DP  RH WIND       PRES   REMARKS
GLASGOW        FAIR      64  46  52 SE8       29.88F
GLENDIVE       FAIR      64  46  52 S10       29.94F
JORDAN           N/A     66  50  56 VRB3      29.88S
MALTA          SUNNY     66  50  55 VRB5      29.85S
SIDNEY         FAIR      67  45  45 S14       29.93F
WOLF POINT     FAIR      65  47  52 E6        29.91F
PLENTYWOOD       N/A     64  39  39 SE12      29.92F
POPLAR           N/A     64  46  52 S5        29.92S
$$

MTZ028>42-056>058-211700-
SOUTHCENTRAL AND SOUTHEAST MONTANA

CITY           SKY/WX    TMP DP  RH WIND       PRES   REMARKS
BAKER          FAIR      62  43  49 S18       29.96F
BILLINGS       FAIR      64  53  67 SW10      29.92S
LIVINGSTON     FAIR      66  45  46 W14       29.96R
MILES CITY     FAIR      62  48  60 SE9       29.91S
BIG TIMBER     SUNNY     63  48  59 W9        29.97S
FORSYTH          N/A     63  48  59 E5        29.89S
HARLOWTON      PTSUNNY   63  52  66 W10       29.95S
LAUREL           N/A     66  54  63 SW7       29.93S
$$

REGIONAL REPORTS...DAKOTAS

CITY           SKY/WX    TMP DP  RH WIND       PRES   REMARKS
WILLISTON      FAIR      69  39  33 S15G21    29.94F
MINOT          FAIR      72  31  22 S15G25    29.97F
DICKINSON      FAIR      65  36  34 S15G23    29.96F
BEACH          FAIR      64  41  42 S20       29.98S
CROSBY         FAIR      68  36  30 S18G25    29.94F
TIOGA          FAIR      64  37  36 S18G26    29.97F
WATFORD CITY   FAIR      66  37  34 S15G22    29.94F
BISMARCK       FAIR      65  41  41 SE8       30.00F
GRAND FORKS    PTSUNNY   68  36  30 SE9       30.04F
FARGO          FAIR      68  42  38 SE6       30.03F
BUFFALO SD       N/A     66  39  37 SE17      29.91S
RAPID CITY     FAIR      62  49  62 S16       29.97F
$$

REGIONAL REPORTS...WYOMING/IDAHO/WASHINGTON

CITY           SKY/WX    TMP DP  RH WIND       PRES   REMARKS
GILLETTE         N/A     64  48  56 S9        29.96S
SHERIDAN       FAIR      63  50  62 CALM      29.94F
BUFFALO WY     FAIR      66  45  46 CALM      29.98S
CODY           FAIR      63  43  48 NE7       29.99S
YELLOWSTONE LA   N/A     44  38  79 E3        30.14S
IDAHO FALLS    FAIR      58  52  80 NW5       29.99S
SALMON         LGT RAIN  53  50  89 W3        30.02R
BOISE          FAIR      63  55  75 CALM      29.95R
SPOKANE        FAIR      61  54  77 S6        29.96R
$$

REGIONAL REPORTS...ALBERTA

CITY           SKY/WX    TMP DP  RH WIND       PRES   REMARKS
CALGARY        PTSUNNY   64  41  42 N13G20    29.95R
CARDSTON         N/A     63  43  48 NW1         N/A
EDMONTON       SUNNY     66  41  39 W8        29.86R
FORT MCMURRAY  SUNNY     70  46  43 VRB3      29.75S
HIGH LEVEL     MOSUNNY   66  45  45 E6        29.70F
LETHBRIDGE     PTSUNNY   64  45  48 NW10      29.92S
LLOYDMINSTER   MOSUNNY   73  43  33 NW12      29.78S
MEDICINE HAT   PTSUNNY   66  46  48 W13       29.84S
PEACE RIVER    MOSUNNY   66  46  48 W13G21    29.80R
PINCHER CREEK  SUNNY     61  39  44 W6        29.96S
WATERTON GATE    N/A     64  34  32 E2          N/A
$$

REGIONAL REPORTS...SASKATCHEWAN

CITY           SKY/WX    TMP DP  RH WIND       PRES   REMARKS
CORONACH         N/A     64  43  45 S10         N/A
CYPRESS HILLS    N/A     68  39  34 SW5         N/A
ESTEVAN        MOSUNNY   68  37  32 S16G24    29.94F
PRINCE ALBERT  MOSUNNY   70  45  40 S6        29.78F
REGINA         MOSUNNY   68  39  34 S14G22    29.88F
ROCKGLEN         N/A     66  45  45 S10         N/A
SASKATOON      MOSUNNY   70  46  43 S9        29.78F
SWIFT CURRENT  SUNNY     73  48  40 SW14      29.82R
VAL MARIE        N/A     66  45  45 S9          N/A
$$




USA.gov is the U.S. government's official web portal to all federal, state and local government web resources and services.